EST,Max TemperatureF,Mean TemperatureF,Min TemperatureF,Max Dew PointF,MeanDew PointF,Min DewpointF,Max Humidity, Mean Humidity, Min Humidity, Max Sea Level PressureIn, Mean Sea Level PressureIn, Min Sea Level PressureIn, Max VisibilityMiles, Mean VisibilityMiles, Min VisibilityMiles, Max Wind SpeedMPH, Mean Wind SpeedMPH, Max Gust SpeedMPH,PrecipitationIn, CloudCover, Events, WindDirDegrees
2012-11-1,51,50,48,46,42,39,82,73,67,29.62,29.59,29.57,10,10,10,18,10,,0.00,2,,250
2012-11-2,53,52,50,43,41,39,71,67,62,29.82,29.64,29.59,10,10,10,14,10,,0.00,6,,309
2012-11-3,51,50,48,36,34,34,58,55,50,29.82,29.78,29.76,10,10,10,17,15,,0.00,1,,318
2012-11-4,51,48,44,39,36,36,81,62,54,29.95,29.92,29.90,10,10,10,14,11,,0.00,0,,310
2012-11-5,44,42,41,30,29,28,65,58,53,30.03,30.01,29.99,10,10,10,12,10,,0.00,6,,345
2012-11-6,41,40,37,25,23,21,56,52,45,30.25,30.21,30.17,10,10,10,6,3,,0.00,0,,320
2012-11-7,42,42,37,36,34,34,93,80,70,29.85,29.76,29.69,8,4,2,29,27,39,0.00,8,Rain,25
2012-11-8,41,39,37,37,35,34,87,85,81,29.73,29.67,29.64,10,10,8,17,13,,0.00,7,,342
2012-11-9,51,46,42,28,27,27,57,46,38,30.05,30.01,29.98,10,10,10,14,12,,0.00,0,,327
2012-11-10,53,52,50,39,39,37,66,60,54,30.36,30.32,30.31,10,10,10,9,6,,0.00,3,,322
2012-11-11,60,58,57,54,52,48,88,78,72,30.52,30.50,30.48,10,10,10,12,10,,0.00,0,,214
2012-11-12,64,62,59,61,59,57,94,89,82,30.49,30.44,30.38,10,10,10,18,11,,0.00,3,,198
2012-11-13,51,48,44,48,44,39,93,86,81,30.34,30.29,30.25,10,10,10,13,10,,0.00,7,,336
2012-11-14,48,45,42,36,32,27,76,62,43,30.50,30.49,30.46,10,10,10,14,9,24,0.00,4,,43
2012-11-15,41,41,41,36,35,34,81,78,76,30.43,30.39,30.35,10,10,10,5,3,,0.00,7,,-1
2012-11-16,46,44,42,37,35,34,71,68,62,30.33,30.31,30.30,10,10,10,5,3,,0.00,4,,-1
2012-11-17,50,47,44,37,36,34,71,63,54,30.61,30.59,30.58,10,10,10,12,8,,0.00,0,,40
2012-11-18,48,47,46,39,38,37,76,69,66,30.68,30.64,30.62,10,10,10,9,6,,0.00,3,,52
2012-11-19,,,,,,,,,,,,,,,,,,,,,,
2012-11-20,48,46,41,41,40,37,87,77,71,30.19,30.15,30.13,10,10,10,7,5,,0.00,3,,60
2012-11-21,51,48,46,41,39,39,76,68,62,30.21,30.19,30.18,10,10,10,9,5,,0.00,0,,53
2012-11-22,,,,,,,,,,,,,,,,,,,,,,
2012-11-23,53,52,51,46,46,46,82,79,77,30.02,29.96,29.89,10,10,10,12,7,,0.00,3,,220
2012-11-24,44,44,42,28,26,21,53,48,42,29.69,29.69,29.68,10,10,10,21,18,31,0.00,1,,312
2012-11-25,37,,37,21,21,21,52,52,52,29.89,29.89,29.89,10,10,10,16,16,,0.00,0,,330
2012-11-26,46,45,44,27,26,25,49,47,43,30.14,30.10,30.07,10,10,10,14,12,17,0.00,1,,290
2012-11-27,42,40,39,39,38,37,93,89,81,30.32,30.27,30.22,10,7,5,5,1,,0.00,8,Rain,-1
2012-11-28,41,39,37,34,31,27,87,70,57,30.20,30.17,30.14,10,10,10,12,7,,0.00,4,,332
2012-11-29,44,42,39,28,28,27,61,57,53,30.34,30.29,30.25,10,10,10,17,12,,0.00,0,,273
2012-11-30,42,42,41,32,31,30,70,66,61,30.43,30.43,30.42,10,10,10,5,4,,0.00,6,,-1